Time,TemperatureF,DewpointF,PressureIn,WindDirection,WindDirectionDegrees,WindSpeedMPH,WindSpeedGustMPH,Humidity,HourlyPrecipIn,Conditions,Clouds,dailyrainin,SoftwareType,DateUTC
2013-02-20 00:05:00,33.0,-99.9,29.83,ENE,59,0.0,9.0,-999,0.00,,,0.29,,2013-02-20 08:05:00,
2013-02-20 00:11:00,33.0,-99.9,29.84,NE,45,2.0,0.0,-999,0.00,,,0.29,,2013-02-20 08:11:00,
2013-02-20 00:22:00,33.0,-99.9,29.84,NE,45,2.0,0.0,-999,0.00,,,0.29,,2013-02-20 08:22:00,
2013-02-20 00:32:00,33.0,-99.9,29.84,East,90,3.0,0.0,-999,0.00,,,0.29,,2013-02-20 08:32:00,
2013-02-20 00:42:00,33.0,-99.9,29.84,East,90,3.0,0.0,-999,0.00,,,0.29,,2013-02-20 08:42:00,
2013-02-20 00:52:00,33.0,-99.9,29.84,ESE,103,0.0,0.0,-999,0.00,,,0.29,,2013-02-20 08:52:00,
2013-02-20 01:02:00,33.0,-99.9,29.85,NE,49,0.0,0.0,-999,0.00,,,0.29,,2013-02-20 09:02:00,
2013-02-20 01:11:00,33.0,-99.9,29.85,NE,49,0.0,0.0,-999,0.00,,,0.29,,2013-02-20 09:11:00,
2013-02-20 01:22:00,34.0,-99.9,29.84,NNE,32,0.0,9.0,-999,0.00,,,0.29,,2013-02-20 09:22:00,
2013-02-20 01:32:00,34.0,-99.9,29.85,NNE,23,2.0,0.0,-999,0.00,,,0.29,,2013-02-20 09:32:00,
2013-02-20 01:42:00,34.0,-99.9,29.85,NNE,23,2.0,0.0,-999,0.00,,,0.29,,2013-02-20 09:42:00,
2013-02-20 01:52:00,34.0,-99.9,29.85,SE,124,1.0,0.0,-999,0.00,,,0.29,,2013-02-20 09:52:00,
2013-02-20 02:01:00,34.0,-99.9,29.86,NE,56,1.0,0.0,-999,0.00,,,0.29,,2013-02-20 10:01:00,
2013-02-20 02:12:00,34.0,-99.9,29.86,NE,56,1.0,0.0,-999,0.00,,,0.29,,2013-02-20 10:12:00,
2013-02-20 02:22:00,35.0,-99.9,29.85,NE,37,0.0,0.0,-999,0.00,,,0.29,,2013-02-20 10:22:00,
2013-02-20 02:32:00,35.0,-99.9,29.87,NE,45,0.0,0.0,-999,0.00,,,0.29,,2013-02-20 10:32:00,
2013-02-20 02:42:00,35.0,-99.9,29.87,NE,45,0.0,0.0,-999,0.00,,,0.29,,2013-02-20 10:42:00,
2013-02-20 02:52:00,35.0,-99.9,29.88,NE,45,2.0,0.0,-999,0.00,,,0.29,,2013-02-20 10:52:00,
2013-02-20 03:02:00,35.0,-99.9,29.87,NE,49,1.0,0.0,-999,0.00,,,0.29,,2013-02-20 11:02:00,
2013-02-20 03:11:00,35.0,-99.9,29.86,NE,48,0.0,0.0,-999,0.00,,,0.29,,2013-02-20 11:11:00,
2013-02-20 03:22:00,35.0,-99.9,29.86,NE,48,0.0,0.0,-999,0.00,,,0.29,,2013-02-20 11:22:00,
2013-02-20 03:32:00,36.0,-99.9,29.88,NNE,20,1.0,0.0,-999,0.00,,,0.29,,2013-02-20 11:32:00,
2013-02-20 03:42:00,36.0,-99.9,29.88,NNE,20,1.0,0.0,-999,0.00,,,0.29,,2013-02-20 11:42:00,
2013-02-20 03:52:00,36.0,-99.9,29.88,NNE,24,0.0,0.0,-999,0.00,,,0.29,,2013-02-20 11:52:00,
2013-02-20 04:02:00,36.0,-99.9,29.88,NE,56,0.0,0.0,-999,0.00,,,0.29,,2013-02-20 12:02:00,
2013-02-20 04:12:00,36.0,-99.9,29.88,NE,56,0.0,0.0,-999,0.00,,,0.29,,2013-02-20 12:12:00,
2013-02-20 04:22:00,35.0,-99.9,29.88,NE,35,0.0,0.0,-999,0.00,,,0.29,,2013-02-20 12:22:00,
2013-02-20 04:32:00,35.0,-99.9,29.89,NE,34,0.0,0.0,-999,0.00,,,0.29,,2013-02-20 12:32:00,
2013-02-20 04:42:00,35.0,-99.9,29.89,NE,34,0.0,0.0,-999,0.00,,,0.29,,2013-02-20 12:42:00,
2013-02-20 04:53:00,36.0,-99.9,29.89,ENE,75,0.0,0.0,-999,0.00,,,0.29,,2013-02-20 12:53:00,
2013-02-20 05:02:00,36.0,-99.9,29.89,NE,52,4.0,0.0,-999,0.00,,,0.29,,2013-02-20 13:02:00,
2013-02-20 05:12:00,36.0,-99.9,29.89,NE,52,4.0,0.0,-999,0.00,,,0.29,,2013-02-20 13:12:00,
2013-02-20 05:22:00,37.0,-99.9,29.91,NE,48,0.0,3.0,-999,0.00,,,0.29,,2013-02-20 13:22:00,
2013-02-20 05:32:00,37.0,-99.9,29.91,NE,55,1.0,0.0,-999,0.00,,,0.29,,2013-02-20 13:32:00,
2013-02-20 05:42:00,37.0,-99.9,29.91,NE,55,1.0,0.0,-999,0.00,,,0.29,,2013-02-20 13:42:00,
2013-02-20 05:52:00,37.0,-99.9,29.91,NE,46,2.0,14.0,-999,0.00,,,0.29,,2013-02-20 13:52:00,
2013-02-20 06:01:00,38.0,-99.9,29.91,NNE,25,2.0,0.0,-999,0.00,,,0.29,,2013-02-20 14:01:00,
2013-02-20 06:11:00,38.0,-99.9,29.91,NNE,25,2.0,0.0,-999,0.00,,,0.29,,2013-02-20 14:11:00,
2013-02-20 06:22:00,38.0,-99.9,29.91,NNE,30,2.0,6.0,-999,0.00,,,0.29,,2013-02-20 14:22:00,
2013-02-20 06:32:00,38.0,-99.9,29.91,NNE,28,0.0,0.0,-999,0.00,,,0.29,,2013-02-20 14:32:00,
2013-02-20 06:42:00,38.0,-99.9,29.92,NE,51,0.0,0.0,-999,0.00,,,0.29,,2013-02-20 14:42:00,
2013-02-20 06:52:00,38.0,-99.9,29.92,NE,51,0.0,0.0,-999,0.00,,,0.29,,2013-02-20 14:52:00,
2013-02-20 07:02:00,39.0,-99.9,29.92,ENE,63,0.0,8.0,-999,0.00,,,0.29,,2013-02-20 15:02:00,
2013-02-20 07:12:00,38.0,-99.9,29.93,North,357,0.0,0.0,-999,0.00,,,0.29,,2013-02-20 15:12:00,
2013-02-20 07:22:00,38.0,-99.9,29.93,North,357,0.0,0.0,-999,0.00,,,0.29,,2013-02-20 15:22:00,
2013-02-20 07:32:00,39.0,-99.9,29.93,East,86,0.0,0.0,-999,0.00,,,0.29,,2013-02-20 15:32:00,
2013-02-20 07:42:00,39.0,-99.9,29.93,NNE,32,0.0,0.0,-999,0.00,,,0.29,,2013-02-20 15:42:00,
2013-02-20 07:52:00,39.0,-99.9,29.93,NNE,32,0.0,0.0,-999,0.00,,,0.29,,2013-02-20 15:52:00,
2013-02-20 08:01:00,40.0,-99.9,29.94,NE,48,3.0,6.0,-999,0.00,,,0.29,,2013-02-20 16:01:00,
2013-02-20 08:12:00,41.0,-99.9,29.95,ENE,75,0.0,0.0,-999,0.00,,,0.29,,2013-02-20 16:12:00,
2013-02-20 08:22:00,41.0,-99.9,29.95,ENE,75,0.0,0.0,-999,0.00,,,0.29,,2013-02-20 16:22:00,
2013-02-20 08:32:00,42.0,-99.9,29.96,NNE,32,0.0,5.0,-999,0.01,,,0.29,,2013-02-20 16:32:00,
2013-02-20 08:42:00,42.0,-99.9,29.96,SE,129,1.0,0.0,-999,0.01,,,0.29,,2013-02-20 16:42:00,
2013-02-20 08:52:00,42.0,-99.9,29.96,SE,129,1.0,0.0,-999,0.01,,,0.29,,2013-02-20 16:52:00,
2013-02-20 09:01:00,42.0,-99.9,29.97,NE,52,3.0,5.0,-999,0.01,,,0.29,,2013-02-20 17:01:00,
2013-02-20 09:11:00,43.0,-99.9,29.98,NE,56,2.0,0.0,-999,0.01,,,0.29,,2013-02-20 17:11:00,
2013-02-20 09:21:00,43.0,-99.9,29.98,NE,56,2.0,0.0,-999,0.01,,,0.29,,2013-02-20 17:21:00,
2013-02-20 09:32:00,43.0,-99.9,29.97,ESE,108,3.0,7.0,-999,0.01,,,0.29,,2013-02-20 17:32:00,
2013-02-20 09:42:00,44.0,-99.9,29.98,East,79,0.0,3.0,-999,0.01,,,0.29,,2013-02-20 17:42:00,
2013-02-20 09:52:00,44.0,-99.9,29.98,East,79,0.0,3.0,-999,0.01,,,0.29,,2013-02-20 17:52:00,
2013-02-20 10:02:00,44.0,-99.9,29.98,NE,53,3.0,0.0,-999,0.01,,,0.29,,2013-02-20 18:02:00,
2013-02-20 10:11:00,44.0,-99.9,29.98,NE,53,3.0,0.0,-999,0.01,,,0.29,,2013-02-20 18:11:00,
2013-02-20 10:22:00,48.0,-99.9,29.98,NNE,32,5.0,0.0,-999,0.01,,,0.29,,2013-02-20 18:22:00,
2013-02-20 10:32:00,49.0,-99.9,29.99,East,86,3.0,7.0,-999,0.00,,,0.29,,2013-02-20 18:32:00,
2013-02-20 10:42:00,49.0,-99.9,29.99,East,86,3.0,7.0,-999,0.00,,,0.29,,2013-02-20 18:42:00,
2013-02-20 10:52:00,49.0,-99.9,29.99,ENE,60,0.0,0.0,-999,0.00,,,0.29,,2013-02-20 18:52:00,
2013-02-20 11:01:00,52.0,-99.9,29.99,NNE,28,0.0,0.0,-999,0.00,,,0.29,,2013-02-20 19:01:00,
2013-02-20 11:12:00,52.0,-99.9,29.99,NNE,28,0.0,0.0,-999,0.00,,,0.29,,2013-02-20 19:12:00,
2013-02-20 11:21:00,51.0,-99.9,30.00,NE,53,0.0,0.0,-999,0.00,,,0.29,,2013-02-20 19:21:00,
2013-02-20 11:32:00,51.0,-99.9,30.00,NE,53,0.0,0.0,-999,0.00,,,0.29,,2013-02-20 19:32:00,
2013-02-20 11:42:00,51.0,-99.9,30.00,NE,53,0.0,0.0,-999,0.00,,,0.29,,2013-02-20 19:42:00,
2013-02-20 11:52:00,50.0,-99.9,30.00,NE,41,2.0,0.0,-999,0.00,,,0.11,,2013-02-20 19:52:00,
2013-02-20 12:01:00,48.0,-99.9,30.00,ENE,59,0.0,0.0,-999,0.00,,,0.11,,2013-02-20 20:01:00,
2013-02-20 12:11:00,48.0,-99.9,30.00,ENE,59,0.0,0.0,-999,0.00,,,0.11,,2013-02-20 20:11:00,
2013-02-20 12:21:00,48.0,-99.9,30.00,ENE,59,0.0,0.0,-999,0.00,,,0.11,,2013-02-20 20:21:00,
2013-02-20 12:31:00,48.0,-99.9,30.00,East,91,1.0,0.0,-999,0.00,,,0.11,,2013-02-20 20:31:00,
2013-02-20 12:41:00,50.0,-99.9,29.98,North,6,1.0,0.0,-999,0.00,,,0.11,,2013-02-20 20:41:00,
2013-02-20 12:52:00,50.0,-99.9,29.98,North,6,1.0,0.0,-999,0.00,,,0.11,,2013-02-20 20:52:00,
2013-02-20 13:01:00,51.0,-99.9,30.00,East,98,1.0,0.0,-999,0.00,,,0.11,,2013-02-20 21:01:00,
2013-02-20 13:11:00,53.0,-99.9,29.99,NNE,31,0.0,0.0,-999,0.00,,,0.11,,2013-02-20 21:11:00,
2013-02-20 13:21:00,53.0,-99.9,29.99,NNE,31,0.0,0.0,-999,0.00,,,0.11,,2013-02-20 21:21:00,
2013-02-20 13:32:00,51.0,-99.9,30.00,East,84,2.0,0.0,-999,0.00,,,0.11,,2013-02-20 21:32:00,
2013-02-20 13:42:00,51.0,-99.9,30.00,East,84,2.0,0.0,-999,0.00,,,0.11,,2013-02-20 21:42:00,
2013-02-20 13:52:00,50.0,-99.9,30.00,East,80,1.0,0.0,-999,0.00,,,0.11,,2013-02-20 21:52:00,
2013-02-20 14:02:00,50.0,-99.9,29.99,ENE,68,0.0,0.0,-999,0.00,,,0.11,,2013-02-20 22:02:00,
2013-02-20 14:11:00,52.0,-99.9,29.98,NE,45,4.0,0.0,-999,0.00,,,0.11,,2013-02-20 22:11:00,
2013-02-20 14:21:00,52.0,-99.9,29.98,NE,45,4.0,0.0,-999,0.00,,,0.11,,2013-02-20 22:21:00,
2013-02-20 14:32:00,52.0,-99.9,29.98,NE,45,4.0,0.0,-999,0.00,,,0.11,,2013-02-20 22:32:00,
2013-02-20 14:43:00,52.0,-99.9,29.98,NE,45,4.0,0.0,-999,0.00,,,0.11,,2013-02-20 22:43:00,
2013-02-20 14:52:00,51.0,-99.9,29.99,NE,39,0.0,0.0,-999,0.00,,,0.11,,2013-02-20 22:52:00,
2013-02-20 15:01:00,51.0,-99.9,29.99,NNE,17,3.0,7.0,-999,0.00,,,0.11,,2013-02-20 23:01:00,
2013-02-20 15:12:00,51.0,-99.9,29.99,NNE,30,0.0,0.0,-999,0.00,,,0.11,,2013-02-20 23:12:00,
2013-02-20 15:22:00,51.0,-99.9,29.99,NNE,30,0.0,0.0,-999,0.00,,,0.11,,2013-02-20 23:22:00,
2013-02-20 15:32:00,51.0,-99.9,29.99,NE,48,0.0,0.0,-999,0.00,,,0.11,,2013-02-20 23:32:00,
2013-02-20 15:43:00,51.0,-99.9,29.99,NE,48,0.0,0.0,-999,0.00,,,0.11,,2013-02-20 23:43:00,
2013-02-20 15:53:00,52.0,-99.9,29.98,NE,37,3.0,0.0,-999,0.00,,,0.11,,2013-02-20 23:53:00,
2013-02-20 16:03:00,51.0,-99.9,29.99,NNE,13,3.0,7.0,-999,0.00,,,0.11,,2013-02-21 00:03:00,
2013-02-20 16:11:00,51.0,-99.9,29.99,NNE,13,3.0,7.0,-999,0.00,,,0.11,,2013-02-21 00:11:00,
2013-02-20 16:22:00,50.0,-99.9,29.99,NE,35,2.0,0.0,-999,0.00,,,0.11,,2013-02-21 00:22:00,
2013-02-20 16:32:00,50.0,-99.9,29.99,NE,45,0.0,0.0,-999,0.00,,,0.11,,2013-02-21 00:32:00,
2013-02-20 16:42:00,50.0,-99.9,30.00,NNE,24,0.0,0.0,-999,0.00,,,0.11,,2013-02-21 00:42:00,
2013-02-20 16:52:00,50.0,-99.9,30.00,NNE,24,0.0,0.0,-999,0.00,,,0.11,,2013-02-21 00:52:00,
2013-02-20 17:01:00,49.0,-99.9,30.00,NE,46,0.0,0.0,-999,0.00,,,0.11,,2013-02-21 01:01:00,
2013-02-20 17:12:00,49.0,-99.9,30.00,NE,46,0.0,0.0,-999,0.00,,,0.11,,2013-02-21 01:12:00,
2013-02-20 17:21:00,47.0,-99.9,30.00,NE,39,1.0,5.0,-999,0.00,,,0.11,,2013-02-21 01:21:00,
2013-02-20 17:32:00,46.0,-99.9,30.01,NE,48,3.0,0.0,-999,0.00,,,0.11,,2013-02-21 01:32:00,
2013-02-20 17:42:00,46.0,-99.9,30.01,NE,48,3.0,0.0,-999,0.00,,,0.11,,2013-02-21 01:42:00,
2013-02-20 17:52:00,45.0,-99.9,30.01,NE,53,1.0,0.0,-999,0.00,,,0.11,,2013-02-21 01:52:00,
2013-02-20 18:02:00,43.0,-99.9,30.01,NE,52,0.0,0.0,-999,0.00,,,0.11,,2013-02-21 02:02:00,
2013-02-20 18:11:00,43.0,-99.9,30.01,NE,52,0.0,0.0,-999,0.00,,,0.11,,2013-02-21 02:11:00,
2013-02-20 18:22:00,42.0,-99.9,30.01,NE,53,0.0,0.0,-999,0.00,,,0.11,,2013-02-21 02:22:00,
2013-02-20 18:32:00,42.0,-99.9,30.01,NE,53,0.0,0.0,-999,0.00,,,0.11,,2013-02-21 02:32:00,
2013-02-20 18:42:00,42.0,-99.9,30.01,NE,53,0.0,0.0,-999,0.00,,,0.11,,2013-02-21 02:42:00,
2013-02-20 18:52:00,42.0,-99.9,30.01,NE,53,0.0,0.0,-999,0.00,,,0.11,,2013-02-21 02:52:00,
2013-02-20 19:02:00,39.0,-99.9,30.03,NE,53,0.0,0.0,-999,0.00,,,0.11,,2013-02-21 03:02:00,
2013-02-20 19:12:00,40.0,-99.9,30.03,NE,53,0.0,0.0,-999,0.00,,,0.11,,2013-02-21 03:12:00,
2013-02-20 19:22:00,40.0,-99.9,30.03,NE,53,0.0,0.0,-999,0.00,,,0.11,,2013-02-21 03:22:00,
2013-02-20 19:32:00,40.0,-99.9,30.04,NE,53,0.0,0.0,-999,0.00,,,0.11,,2013-02-21 03:32:00,
2013-02-20 19:42:00,40.0,-99.9,30.04,NE,53,0.0,0.0,-999,0.00,,,0.11,,2013-02-21 03:42:00,
2013-02-20 19:52:00,39.0,-99.9,30.04,NE,53,0.0,0.0,-999,0.00,,,0.11,,2013-02-21 03:52:00,
2013-02-20 20:01:00,39.0,-99.9,30.05,NE,53,0.0,0.0,-999,0.00,,,0.11,,2013-02-21 04:01:00,
2013-02-20 20:11:00,39.0,-99.9,30.05,NE,53,0.0,0.0,-999,0.00,,,0.11,,2013-02-21 04:11:00,
2013-02-20 20:22:00,40.0,-99.9,30.05,NE,53,0.0,0.0,-999,0.00,,,0.11,,2013-02-21 04:22:00,
2013-02-20 20:32:00,41.0,-99.9,30.05,NE,53,0.0,0.0,-999,0.00,,,0.11,,2013-02-21 04:32:00,
2013-02-20 20:42:00,41.0,-99.9,30.05,NE,53,0.0,0.0,-999,0.00,,,0.11,,2013-02-21 04:42:00,
2013-02-20 20:52:00,41.0,-99.9,30.03,NE,53,0.0,0.0,-999,0.00,,,0.11,,2013-02-21 04:52:00,
2013-02-20 21:03:00,40.0,-99.9,30.06,NE,53,0.0,0.0,-999,0.00,,,0.11,,2013-02-21 05:03:00,
2013-02-20 21:12:00,40.0,-99.9,30.06,NE,53,0.0,0.0,-999,0.00,,,0.11,,2013-02-21 05:12:00,
2013-02-20 21:22:00,40.0,-99.9,30.06,NE,53,0.0,0.0,-999,0.00,,,0.11,,2013-02-21 05:22:00,
2013-02-20 21:37:00,39.0,-99.9,30.06,NE,53,0.0,0.0,-999,0.00,,,0.11,,2013-02-21 05:37:00,
2013-02-20 21:47:00,39.0,-99.9,30.06,NE,53,0.0,0.0,-999,0.00,,,0.11,,2013-02-21 05:47:00,
2013-02-20 22:01:00,39.0,-99.9,30.07,NE,53,0.0,0.0,-999,0.00,,,0.11,,2013-02-21 06:01:00,
2013-02-20 22:11:00,39.0,-99.9,30.08,NE,53,0.0,0.0,-999,0.00,,,0.11,,2013-02-21 06:11:00,
2013-02-20 22:21:00,39.0,-99.9,30.08,NE,53,0.0,0.0,-999,0.00,,,0.11,,2013-02-21 06:21:00,
2013-02-20 22:31:00,39.0,-99.9,30.07,ENE,58,0.0,0.0,-999,0.00,,,0.11,,2013-02-21 06:31:00,
2013-02-20 22:42:00,39.0,-99.9,30.07,ENE,58,0.0,0.0,-999,0.00,,,0.11,,2013-02-21 06:42:00,
2013-02-20 22:52:00,39.0,-99.9,30.07,ENE,58,0.0,0.0,-999,0.00,,,0.11,,2013-02-21 06:52:00,
2013-02-20 23:01:00,39.0,-99.9,30.08,NE,37,0.0,0.0,-999,0.00,,,0.11,,2013-02-21 07:01:00,
2013-02-20 23:11:00,38.0,-99.9,30.08,NE,53,0.0,0.0,-999,0.00,,,0.11,,2013-02-21 07:11:00,
2013-02-20 23:22:00,38.0,-99.9,30.08,NE,53,0.0,0.0,-999,0.00,,,0.11,,2013-02-21 07:22:00,
2013-02-20 23:32:00,38.0,-99.9,30.08,NE,53,0.0,0.0,-999,0.00,,,0.11,,2013-02-21 07:32:00,
2013-02-20 23:42:00,38.0,-99.9,30.07,NE,48,0.0,0.0,-999,0.00,,,0.11,,2013-02-21 07:42:00,
2013-02-20 23:52:00,38.0,-99.9,30.07,NE,48,0.0,0.0,-999,0.00,,,0.11,,2013-02-21 07:52:00,